Flag for Germany Weather past 2 weeks in Tübingen, Baden-Württemberg, Germany

Now
50 °F

Passing clouds.


Feels Like: 47 °F
Forecast: 37 / 45 °F
Wind: 8 mph from Southwest

Location: Stuttgart-Echterdingen

Current Time: Dec 19, 2014 at 5:41:33 AM

Latest Report: Dec 19, 2014 at 5:20 AM


Visibility: N/A

Pressure: 30.09 "Hg

Humidity: 76%

Dew point: 43 °F

Location of TübingenLocation

Historic Weather in Tübingen — Graph

°F

Tübingen temperature yesterday

Maximum temperature yesterday: 54 °F (at 5:50 PM)
Minimum temperature yesterday: 45 °F (at 12:20 AM)
Average temperature yesterday: 49 °F

Past Weeks' High & Low Weather Summary

 TemperatureHumidityPressure
High54 °F (Dec 13, 3:20 PM)100% (Dec 4, 4:50 AM)30.42 "Hg (Dec 4, 4:50 AM)
Low28 °F (Dec 10, 3:20 AM)58% (Dec 12, 12:50 PM)29.74 "Hg (Dec 12, 4:50 PM)
Average41 °F86%30.03 "Hg
* Reported Dec 4 4:20 AM — Dec 19 4:20 AM, Tübingen, Weather by CustomWeather, © 2014

Note: Actual official high and low records may vary slightly from our data, if they occured in-between our weather recording intervals... More about our weather records

Advertising

Tübingen weather history for previous 24 hours

 ConditionsComfort  
Time TempWeatherWind HumidityBarometerVisibility
4:20 AM
Dec 19
50 °FPassing clouds.12 mph76%30.12 "HgN/A
3:50 AM50 °FPassing clouds.8 mph76%30.12 "HgN/A
3:20 AM50 °FPassing clouds.5 mph76%30.12 "HgN/A
2:50 AM50 °FPassing clouds.8 mph76%30.12 "HgN/A
2:20 AM50 °FPassing clouds.13 mph82%30.12 "HgN/A
1:50 AM52 °FPassing clouds.12 mph77%30.12 "HgN/A
1:20 AM54 °FPassing clouds.9 mph77%30.12 "HgN/A
12:50 AM52 °FPassing clouds.13 mph82%30.12 "HgN/A
12:20 AM54 °FPassing clouds.9 mph77%30.12 "HgN/A
11:50 PM
Dec 18
54 °FPassing clouds.5 mph77%30.12 "HgN/A
11:20 PM54 °FPassing clouds.6 mph82%30.12 "HgN/A
10:50 PM54 °FPassing clouds.7 mph82%30.09 "HgN/A
10:20 PM54 °FPassing clouds.14 mph82%30.09 "HgN/A
9:50 PM54 °FPassing clouds.12 mph82%30.09 "HgN/A
9:20 PM54 °FPassing clouds.12 mph88%30.09 "HgN/A
8:50 PM54 °FPassing clouds.8 mph82%30.07 "HgN/A
8:20 PM54 °FPassing clouds.9 mph82%30.09 "HgN/A
7:50 PM54 °FPartly cloudy.10 mph82%30.07 "HgN/A
7:20 PM54 °FPartly cloudy.9 mph82%30.07 "HgN/A
6:50 PM54 °FPartly cloudy.13 mph82%30.07 "HgN/A
6:20 PM54 °FPartly cloudy.10 mph82%30.04 "HgN/A
5:50 PM54 °FPassing clouds.9 mph82%30.04 "HgN/A
5:20 PM52 °FPartly cloudy.8 mph88%30.04 "HgN/A
4:20 PM52 °FPartly sunny.6 mph88%30.04 "HgN/A
3:50 PM52 °FPartly sunny.6 mph88%30.01 "HgN/A
3:20 PM52 °FBroken clouds.5 mph88%30.01 "HgN/A
2:50 PM50 °FLight rain. Partly sunny.5 mph94%30.01 "HgN/A
2:20 PM50 °FDrizzle. Partly sunny.6 mph94%30.01 "Hg3 mi
1:50 PM50 °FDrizzle. Broken clouds.7 mph94%30.01 "Hg3 mi
1:20 PM50 °FDrizzle. Partly sunny.7 mph94%30.01 "Hg4 mi
12:50 PM50 °FLight rain. Broken clouds.8 mph94%30.01 "Hg5 mi
12:20 PM52 °FLight rain. Broken clouds.8 mph82%30.01 "HgN/A
11:50 AM50 °FBroken clouds.8 mph88%30.01 "HgN/A
11:20 AM50 °FBroken clouds.9 mph82%30.01 "HgN/A
10:50 AM50 °FBroken clouds.6 mph82%30.01 "HgN/A
10:20 AM50 °FBroken clouds.8 mph82%30.01 "HgN/A
9:50 AM48 °FBroken clouds.7 mph87%30.01 "HgN/A
9:20 AM48 °FBroken clouds.5 mph82%30.01 "HgN/A
8:50 AM48 °FBroken clouds.5 mph82%30.01 "HgN/A
8:20 AM48 °FBroken clouds.7 mph82%30.01 "HgN/A
7:50 AM46 °FPassing clouds.7 mph87%30.01 "HgN/A
7:20 AM46 °FPassing clouds.7 mph87%29.98 "HgN/A
6:50 AM46 °FPartly cloudy.5 mph87%29.98 "HgN/A
6:20 AM45 °FPartly cloudy.6 mph87%30.01 "HgN/A
5:50 AM46 °FPassing clouds.6 mph87%29.98 "HgN/A
5:20 AM45 °FPassing clouds.7 mph87%29.98 "HgN/A
Weather by CustomWeather, © 2014

See weather overviewHow to use our weather pages